contact:dominique.lefevre@mio.osupytheas.fr, maurice.libes@osupytheas.fr, didier.mallarino@osupytheas.fr
Project:EMSO http://www.emso-fr.org/EMSO-France
Depth: 2436.0 m
Title:EMSO Ligure Ouest : Data MII capteur CSTAR
DateTime,Latitude,Longitude,Instrument_Serial,Reference_Counts,Signal_Counts,Corrected_Signal_raw_counts,Calculated_Beam_c_inverse_meters,Internal_thermistor_counts
DateTime,Latitude,Longitude,Instrument_Serial,Reference_Counts,Signal_Counts,Corrected_Signal_raw_counts,Calculated_Beam_c_inverse_meters,Internal_thermistor_counts
2019-07-25T00:00:39,42.805,6.029,CST-1368DR,8545,11952,15453,0.042,550
2019-07-25T00:03:40,42.805,6.029,CST-1368DR,8545,11954,15456,0.041,551
2019-07-25T00:06:42,42.805,6.029,CST-1368DR,8544,11953,15455,0.041,551
2019-07-25T00:09:44,42.805,6.029,CST-1368DR,8544,11954,15457,0.041,551
2019-07-25T00:12:46,42.805,6.029,CST-1368DR,8545,11954,15455,0.041,551
2019-07-25T00:15:47,42.805,6.029,CST-1368DR,8545,11955,15456,0.041,551
2019-07-25T00:18:49,42.805,6.029,CST-1368DR,8544,11954,15457,0.041,551
2019-07-25T00:21:51,42.805,6.029,CST-1368DR,8544,11954,15457,0.041,551
2019-07-25T00:24:52,42.805,6.029,CST-1368DR,8544,11953,15456,0.041,551
2019-07-25T00:27:54,42.805,6.029,CST-1368DR,8544,11953,15456,0.041,551
2019-07-25T00:30:55,42.805,6.029,CST-1368DR,8544,11931,15427,0.049,551
2019-07-25T00:33:57,42.805,6.029,CST-1368DR,8544,11949,15450,0.043,551
2019-07-25T00:36:59,42.805,6.029,CST-1368DR,8544,11952,15454,0.042,551
2019-07-25T00:40:00,42.805,6.029,CST-1368DR,8544,11955,15458,0.041,550
2019-07-25T00:43:02,42.805,6.029,CST-1368DR,8544,11955,15458,0.041,551
2019-07-25T00:46:04,42.805,6.029,CST-1368DR,8544,11954,15457,0.041,551
2019-07-25T00:49:05,42.805,6.029,CST-1368DR,8544,11955,15458,0.041,550
2019-07-25T00:52:07,42.805,6.029,CST-1368DR,8544,11954,15457,0.041,551
2019-07-25T00:55:09,42.805,6.029,CST-1368DR,8544,11953,15456,0.041,551
2019-07-25T00:58:10,42.805,6.029,CST-1368DR,8544,11952,15455,0.041,551
2019-07-25T01:01:12,42.805,6.029,CST-1368DR,8544,11952,15455,0.041,551
2019-07-25T01:04:13,42.805,6.029,CST-1368DR,8544,11953,15455,0.041,551
2019-07-25T01:07:15,42.805,6.029,CST-1368DR,8544,11954,15457,0.041,551
2019-07-25T01:10:17,42.805,6.029,CST-1368DR,8544,11953,15456,0.041,551
2019-07-25T01:13:18,42.805,6.029,CST-1368DR,8544,11951,15454,0.042,551
2019-07-25T01:16:20,42.805,6.029,CST-1368DR,8544,11952,15454,0.042,551
2019-07-25T01:19:22,42.805,6.029,CST-1368DR,8544,11952,15455,0.041,551
2019-07-25T01:22:23,42.805,6.029,CST-1368DR,8544,11953,15456,0.041,551
2019-07-25T01:25:25,42.805,6.029,CST-1368DR,8544,11953,15455,0.041,551
2019-07-25T01:28:26,42.805,6.029,CST-1368DR,8544,11953,15455,0.041,551
2019-07-25T01:31:28,42.805,6.029,CST-1368DR,8544,11953,15456,0.041,551
2019-07-25T01:34:30,42.805,6.029,CST-1368DR,8544,11953,15455,0.041,551
2019-07-25T01:37:31,42.805,6.029,CST-1368DR,8544,11953,15456,0.041,551
2019-07-25T01:40:33,42.805,6.029,CST-1368DR,8544,11953,15455,0.041,551
2019-07-25T01:43:35,42.805,6.029,CST-1368DR,8544,11953,15456,0.041,551
2019-07-25T01:46:36,42.805,6.029,CST-1368DR,8544,11954,15457,0.041,551
2019-07-25T01:49:38,42.805,6.029,CST-1368DR,8544,11953,15455,0.041,551
2019-07-25T01:52:39,42.805,6.029,CST-1368DR,8544,11955,15458,0.041,551
2019-07-25T01:55:41,42.805,6.029,CST-1368DR,8544,11953,15456,0.041,551
2019-07-25T01:58:43,42.805,6.029,CST-1368DR,8544,11954,15457,0.041,551
2019-07-25T02:01:45,42.805,6.029,CST-1368DR,8544,11952,15455,0.041,551
2019-07-25T02:04:46,42.805,6.029,CST-1368DR,8544,11947,15448,0.043,550
2019-07-25T02:07:48,42.805,6.029,CST-1368DR,8544,11952,15455,0.041,551
2019-07-25T02:10:49,42.805,6.029,CST-1368DR,8544,11953,15456,0.041,551
2019-07-25T02:13:51,42.805,6.029,CST-1368DR,8544,11952,15454,0.042,551
2019-07-25T02:16:53,42.805,6.029,CST-1368DR,8544,11953,15455,0.041,551
2019-07-25T02:19:54,42.805,6.029,CST-1368DR,8544,11944,15444,0.044,551
2019-07-25T02:22:57,42.805,6.029,CST-1368DR,8544,11952,15454,0.042,551
2019-07-25T02:25:58,42.805,6.029,CST-1368DR,8544,11953,15456,0.041,551
2019-07-25T02:29:00,42.805,6.029,CST-1368DR,8544,11953,15455,0.041,551
2019-07-25T02:32:02,42.805,6.029,CST-1368DR,8544,11951,15453,0.042,551
2019-07-25T02:35:03,42.805,6.029,CST-1368DR,8544,11953,15456,0.041,551
2019-07-25T02:38:05,42.805,6.029,CST-1368DR,8544,11953,15456,0.041,551
2019-07-25T02:41:07,42.805,6.029,CST-1368DR,8543,11951,15455,0.041,551
2019-07-25T02:44:08,42.805,6.029,CST-1368DR,8544,11952,15454,0.042,551
2019-07-25T02:47:10,42.805,6.029,CST-1368DR,8543,11952,15456,0.041,551
2019-07-25T02:50:11,42.805,6.029,CST-1368DR,8543,11953,15458,0.041,551
2019-07-25T02:53:13,42.805,6.029,CST-1368DR,8543,11952,15457,0.041,551
2019-07-25T02:56:15,42.805,6.029,CST-1368DR,8543,11952,15457,0.041,550
2019-07-25T02:59:16,42.805,6.029,CST-1368DR,8543,11951,15455,0.041,551
2019-07-25T03:02:18,42.805,6.029,CST-1368DR,8543,11952,15457,0.041,551
2019-07-25T03:05:20,42.805,6.029,CST-1368DR,8543,11953,15457,0.041,551
2019-07-25T03:08:21,42.805,6.029,CST-1368DR,8543,11952,15456,0.041,551
2019-07-25T03:11:23,42.805,6.029,CST-1368DR,8543,11952,15456,0.041,551
2019-07-25T03:14:25,42.805,6.029,CST-1368DR,8543,11952,15457,0.041,551
2019-07-25T03:17:26,42.805,6.029,CST-1368DR,8543,11952,15456,0.041,551
2019-07-25T03:20:28,42.805,6.029,CST-1368DR,8543,11952,15456,0.041,550
2019-07-25T03:23:29,42.805,6.029,CST-1368DR,8543,11952,15456,0.041,551
2019-07-25T03:26:31,42.805,6.029,CST-1368DR,8543,11951,15455,0.041,551
2019-07-25T03:29:33,42.805,6.029,CST-1368DR,8543,11951,15455,0.041,551
2019-07-25T03:32:34,42.805,6.029,CST-1368DR,8543,11953,15457,0.041,551
2019-07-25T03:35:36,42.805,6.029,CST-1368DR,8543,11953,15457,0.041,551
2019-07-25T03:38:38,42.805,6.029,CST-1368DR,8543,11951,15455,0.041,551
2019-07-25T03:41:39,42.805,6.029,CST-1368DR,8543,11953,15457,0.041,550
2019-07-25T03:44:41,42.805,6.029,CST-1368DR,8543,11953,15457,0.041,551
2019-07-25T03:47:42,42.805,6.029,CST-1368DR,8543,11952,15456,0.041,551
2019-07-25T03:50:44,42.805,6.029,CST-1368DR,8543,11951,15454,0.042,551
2019-07-25T03:53:46,42.805,6.029,CST-1368DR,8543,11953,15457,0.041,551
2019-07-25T03:56:47,42.805,6.029,CST-1368DR,8543,11952,15457,0.041,551
2019-07-25T03:59:49,42.805,6.029,CST-1368DR,8543,11952,15456,0.041,551
2019-07-25T04:02:50,42.805,6.029,CST-1368DR,8543,11951,15455,0.041,551
2019-07-25T04:05:52,42.805,6.029,CST-1368DR,8543,11951,15455,0.041,550
2019-07-25T04:08:54,42.805,6.029,CST-1368DR,8543,11952,15456,0.041,551
2019-07-25T04:11:55,42.805,6.029,CST-1368DR,8543,11952,15456,0.041,551
2019-07-25T04:14:57,42.805,6.029,CST-1368DR,8543,11952,15457,0.041,551
2019-07-25T04:17:59,42.805,6.029,CST-1368DR,8543,11951,15455,0.041,551
2019-07-25T04:21:00,42.805,6.029,CST-1368DR,8543,11952,15456,0.041,551
2019-07-25T04:24:02,42.805,6.029,CST-1368DR,8543,11953,15457,0.041,550
2019-07-25T04:27:04,42.805,6.029,CST-1368DR,8543,11952,15457,0.041,550
2019-07-25T04:30:05,42.805,6.029,CST-1368DR,8543,11952,15456,0.041,551
2019-07-25T04:33:07,42.805,6.029,CST-1368DR,8543,11947,15450,0.043,551
2019-07-25T04:36:08,42.805,6.029,CST-1368DR,8543,11951,15455,0.041,551
2019-07-25T04:39:10,42.805,6.029,CST-1368DR,8543,11951,15455,0.041,551
2019-07-25T04:42:12,42.805,6.029,CST-1368DR,8542,11951,15456,0.041,551
2019-07-25T04:45:13,42.805,6.029,CST-1368DR,8543,11952,15456,0.041,551
2019-07-25T04:48:15,42.805,6.029,CST-1368DR,8542,11950,15455,0.041,550
2019-07-25T04:51:16,42.805,6.029,CST-1368DR,8542,11952,15458,0.041,551
2019-07-25T04:54:18,42.805,6.029,CST-1368DR,8542,11951,15457,0.041,551
2019-07-25T04:57:20,42.805,6.029,CST-1368DR,8542,11952,15457,0.041,551
2019-07-25T05:00:22,42.805,6.029,CST-1368DR,8542,11952,15457,0.041,550
2019-07-25T05:03:23,42.805,6.029,CST-1368DR,8542,11952,15458,0.041,551
2019-07-25T05:06:25,42.805,6.029,CST-1368DR,8542,11948,15453,0.042,551
2019-07-25T05:09:27,42.805,6.029,CST-1368DR,8542,11950,15455,0.041,551
2019-07-25T05:12:28,42.805,6.029,CST-1368DR,8542,11952,15458,0.041,551
2019-07-25T05:15:30,42.805,6.029,CST-1368DR,8542,11950,15455,0.041,551
2019-07-25T05:18:32,42.805,6.029,CST-1368DR,8542,11951,15456,0.041,550
2019-07-25T05:21:33,42.805,6.029,CST-1368DR,8542,11951,15457,0.041,551
2019-07-25T05:24:35,42.805,6.029,CST-1368DR,8542,11952,15458,0.041,551
2019-07-25T05:27:36,42.805,6.029,CST-1368DR,8542,11952,15457,0.041,551
2019-07-25T05:30:38,42.805,6.029,CST-1368DR,8542,11950,15455,0.041,551
2019-07-25T05:33:40,42.805,6.029,CST-1368DR,8542,11950,15455,0.041,551
2019-07-25T05:36:41,42.805,6.029,CST-1368DR,8542,11951,15457,0.041,551
2019-07-25T05:39:43,42.805,6.029,CST-1368DR,8542,11950,15455,0.041,551
2019-07-25T05:42:45,42.805,6.029,CST-1368DR,8542,11952,15457,0.041,551
2019-07-25T05:45:46,42.805,6.029,CST-1368DR,8542,11950,15455,0.041,551
2019-07-25T05:48:48,42.805,6.029,CST-1368DR,8542,11952,15458,0.041,551
2019-07-25T05:51:50,42.805,6.029,CST-1368DR,8542,11951,15457,0.041,551
2019-07-25T05:54:51,42.805,6.029,CST-1368DR,8542,11952,15458,0.041,551
2019-07-25T05:57:53,42.805,6.029,CST-1368DR,8542,11951,15457,0.041,551
2019-07-25T06:00:55,42.805,6.029,CST-1368DR,8542,11951,15457,0.041,551
2019-07-25T06:03:56,42.805,6.029,CST-1368DR,8542,11951,15456,0.041,551
2019-07-25T06:06:58,42.805,6.029,CST-1368DR,8542,11952,15457,0.041,551
2019-07-25T06:09:59,42.805,6.029,CST-1368DR,8542,11952,15457,0.041,551
2019-07-25T06:13:01,42.805,6.029,CST-1368DR,8542,11951,15457,0.041,551
2019-07-25T06:16:03,42.805,6.029,CST-1368DR,8542,11951,15456,0.041,551
2019-07-25T06:19:04,42.805,6.029,CST-1368DR,8542,11951,15456,0.041,551
2019-07-25T06:22:06,42.805,6.029,CST-1368DR,8542,11950,15455,0.041,551
2019-07-25T06:25:08,42.805,6.029,CST-1368DR,8542,11951,15457,0.041,551
2019-07-25T06:28:09,42.805,6.029,CST-1368DR,8542,11951,15456,0.041,551
2019-07-25T06:31:11,42.805,6.029,CST-1368DR,8542,11946,15450,0.043,551
2019-07-25T06:34:13,42.805,6.029,CST-1368DR,8542,11949,15454,0.042,551
2019-07-25T06:37:14,42.805,6.029,CST-1368DR,8542,11952,15457,0.041,551
2019-07-25T06:40:16,42.805,6.029,CST-1368DR,8542,11949,15454,0.042,551
2019-07-25T06:43:18,42.805,6.029,CST-1368DR,8542,11950,15455,0.041,551
2019-07-25T06:46:19,42.805,6.029,CST-1368DR,8541,11951,15458,0.041,551
2019-07-25T06:49:21,42.805,6.029,CST-1368DR,8541,11950,15456,0.041,551
2019-07-25T06:52:23,42.805,6.029,CST-1368DR,8541,11945,15450,0.043,551
2019-07-25T06:55:24,42.805,6.029,CST-1368DR,8541,11951,15459,0.040,551
2019-07-25T06:58:26,42.805,6.029,CST-1368DR,8541,11952,15459,0.040,551
2019-07-25T07:01:28,42.805,6.029,CST-1368DR,8541,11951,15458,0.041,551
2019-07-25T07:04:29,42.805,6.029,CST-1368DR,8541,11948,15454,0.042,551
2019-07-25T07:07:31,42.805,6.029,CST-1368DR,8541,11951,15458,0.041,551
2019-07-25T07:10:33,42.805,6.029,CST-1368DR,8541,11949,15456,0.041,551
2019-07-25T07:13:34,42.805,6.029,CST-1368DR,8541,11951,15458,0.041,551
2019-07-25T07:16:36,42.805,6.029,CST-1368DR,8541,11951,15458,0.041,551
2019-07-25T07:19:37,42.805,6.029,CST-1368DR,8541,11951,15458,0.041,551
2019-07-25T07:22:39,42.805,6.029,CST-1368DR,8541,11950,15457,0.041,551
2019-07-25T07:25:41,42.805,6.029,CST-1368DR,8541,11951,15459,0.040,550
2019-07-25T07:28:42,42.805,6.029,CST-1368DR,8541,11951,15458,0.041,551
2019-07-25T07:31:44,42.805,6.029,CST-1368DR,8541,11951,15458,0.041,551
2019-07-25T07:34:46,42.805,6.029,CST-1368DR,8541,11950,15457,0.041,551
2019-07-25T07:37:47,42.805,6.029,CST-1368DR,8541,11951,15458,0.041,551
2019-07-25T07:40:49,42.805,6.029,CST-1368DR,8541,11950,15457,0.041,551
2019-07-25T07:43:50,42.805,6.029,CST-1368DR,8541,11949,15456,0.041,551
2019-07-25T07:46:52,42.805,6.029,CST-1368DR,8541,11950,15457,0.041,551
2019-07-25T07:49:54,42.805,6.029,CST-1368DR,8541,11950,15457,0.041,551
2019-07-25T07:52:55,42.805,6.029,CST-1368DR,8541,11945,15451,0.042,551
2019-07-25T07:55:57,42.805,6.029,CST-1368DR,8541,11949,15456,0.041,551
2019-07-25T07:58:59,42.805,6.029,CST-1368DR,8541,11949,15455,0.041,551
2019-07-25T08:02:00,42.805,6.029,CST-1368DR,8541,11949,15456,0.041,551
2019-07-25T08:05:02,42.805,6.029,CST-1368DR,8541,11950,15457,0.041,551
2019-07-25T08:08:03,42.805,6.029,CST-1368DR,8541,11949,15455,0.041,550
2019-07-25T08:11:05,42.805,6.029,CST-1368DR,8541,11950,15457,0.041,551
2019-07-25T08:14:07,42.805,6.029,CST-1368DR,8541,11950,15457,0.041,551
2019-07-25T08:17:08,42.805,6.029,CST-1368DR,8541,11950,15456,0.041,551
2019-07-25T08:20:10,42.805,6.029,CST-1368DR,8541,11950,15457,0.041,551
2019-07-25T08:23:12,42.805,6.029,CST-1368DR,8541,11948,15454,0.042,551
2019-07-25T08:26:13,42.805,6.029,CST-1368DR,8540,11949,15458,0.041,550
2019-07-25T08:29:15,42.805,6.029,CST-1368DR,8540,11949,15458,0.041,551
2019-07-25T08:32:16,42.805,6.029,CST-1368DR,8540,11950,15459,0.040,551
2019-07-25T08:35:18,42.805,6.029,CST-1368DR,8540,11950,15458,0.041,551
2019-07-25T08:38:20,42.805,6.029,CST-1368DR,8541,11950,15457,0.041,550
2019-07-25T08:41:22,42.805,6.029,CST-1368DR,8540,11949,15457,0.041,551
2019-07-25T08:44:23,42.805,6.029,CST-1368DR,8540,11950,15458,0.041,551
2019-07-25T08:47:25,42.805,6.029,CST-1368DR,8540,11950,15458,0.041,551
2019-07-25T08:50:26,42.805,6.029,CST-1368DR,8540,11950,15458,0.041,551
2019-07-25T08:53:28,42.805,6.029,CST-1368DR,8540,11949,15457,0.041,551
2019-07-25T08:56:30,42.805,6.029,CST-1368DR,8540,11949,15457,0.041,551
2019-07-25T08:59:31,42.805,6.029,CST-1368DR,8540,11949,15457,0.041,551
2019-07-25T09:02:33,42.805,6.029,CST-1368DR,8540,11948,15456,0.041,551
2019-07-25T09:05:35,42.805,6.029,CST-1368DR,8540,11948,15456,0.041,551
2019-07-25T09:08:36,42.805,6.029,CST-1368DR,8540,11949,15457,0.041,550
2019-07-25T09:11:38,42.805,6.029,CST-1368DR,8540,11949,15457,0.041,551
2019-07-25T09:14:40,42.805,6.029,CST-1368DR,8540,11947,15455,0.041,550
2019-07-25T09:17:41,42.805,6.029,CST-1368DR,8540,11948,15455,0.041,551
2019-07-25T09:20:43,42.805,6.029,CST-1368DR,8540,11949,15457,0.041,551
2019-07-25T09:23:44,42.805,6.029,CST-1368DR,8540,11949,15457,0.041,551
2019-07-25T09:26:46,42.805,6.029,CST-1368DR,8540,11949,15457,0.041,551
2019-07-25T09:29:48,42.805,6.029,CST-1368DR,8540,11949,15457,0.041,551
2019-07-25T09:32:49,42.805,6.029,CST-1368DR,8540,11949,15457,0.041,551
2019-07-25T09:35:51,42.805,6.029,CST-1368DR,8540,11948,15456,0.041,551
2019-07-25T09:38:53,42.805,6.029,CST-1368DR,8540,11948,15456,0.041,551
2019-07-25T09:41:54,42.805,6.029,CST-1368DR,8540,11943,15450,0.043,551
2019-07-25T09:44:56,42.805,6.029,CST-1368DR,8540,11942,15448,0.043,551
2019-07-25T09:47:58,42.805,6.029,CST-1368DR,8540,11946,15454,0.042,551
2019-07-25T09:50:59,42.805,6.029,CST-1368DR,8540,11949,15457,0.041,551
2019-07-25T09:54:01,42.805,6.029,CST-1368DR,8540,11948,15456,0.041,551
2019-07-25T09:57:03,42.805,6.029,CST-1368DR,8540,11949,15458,0.041,551
2019-07-25T10:00:04,42.805,6.029,CST-1368DR,8540,11947,15455,0.041,551
2019-07-25T10:03:06,42.805,6.029,CST-1368DR,8540,11948,15456,0.041,551
2019-07-25T10:06:08,42.805,6.029,CST-1368DR,8540,11949,15457,0.041,551
2019-07-25T10:09:09,42.805,6.029,CST-1368DR,8540,11948,15456,0.041,551
2019-07-25T10:12:11,42.805,6.029,CST-1368DR,8539,11948,15458,0.041,551
2019-07-25T10:15:12,42.805,6.029,CST-1368DR,8540,11948,15456,0.041,551
2019-07-25T10:18:14,42.805,6.029,CST-1368DR,8540,11948,15456,0.041,551
2019-07-25T10:21:16,42.805,6.029,CST-1368DR,8540,11948,15456,0.041,551
2019-07-25T10:24:17,42.805,6.029,CST-1368DR,8539,11945,15454,0.042,551
2019-07-25T10:27:19,42.805,6.029,CST-1368DR,8540,11947,15455,0.041,551
2019-07-25T10:30:20,42.805,6.029,CST-1368DR,8539,11948,15458,0.041,551
2019-07-25T10:33:22,42.805,6.029,CST-1368DR,8539,11948,15457,0.041,551
2019-07-25T10:36:24,42.805,6.029,CST-1368DR,8539,11947,15456,0.041,551
2019-07-25T10:39:25,42.805,6.029,CST-1368DR,8539,11949,15458,0.041,551
2019-07-25T10:42:27,42.805,6.029,CST-1368DR,8539,11948,15458,0.041,551
2019-07-25T10:45:29,42.805,6.029,CST-1368DR,8539,11948,15457,0.041,550
2019-07-25T10:48:30,42.805,6.029,CST-1368DR,8539,11945,15454,0.042,551
2019-07-25T10:51:32,42.805,6.029,CST-1368DR,8539,11946,15455,0.041,551
2019-07-25T10:54:34,42.805,6.029,CST-1368DR,8539,11947,15456,0.041,551
2019-07-25T10:57:35,42.805,6.029,CST-1368DR,8539,11945,15454,0.042,551
2019-07-25T11:00:37,42.805,6.029,CST-1368DR,8539,11945,15453,0.042,551
2019-07-25T11:03:39,42.805,6.029,CST-1368DR,8539,11946,15455,0.041,551
2019-07-25T11:06:40,42.805,6.029,CST-1368DR,8539,11948,15457,0.041,551
2019-07-25T11:09:42,42.805,6.029,CST-1368DR,8539,11947,15456,0.041,551
2019-07-25T11:12:44,42.805,6.029,CST-1368DR,8539,11947,15457,0.041,551
2019-07-25T11:15:45,42.805,6.029,CST-1368DR,8539,11947,15456,0.041,551
2019-07-25T11:18:47,42.805,6.029,CST-1368DR,8539,11947,15457,0.041,551
2019-07-25T11:21:48,42.805,6.029,CST-1368DR,8539,11947,15456,0.041,551
2019-07-25T11:24:50,42.805,6.029,CST-1368DR,8539,11947,15457,0.041,551
2019-07-25T11:27:52,42.805,6.029,CST-1368DR,8539,11947,15457,0.041,551
2019-07-25T11:30:53,42.805,6.029,CST-1368DR,8539,11943,15451,0.042,551
2019-07-25T11:33:55,42.805,6.029,CST-1368DR,8539,11918,15418,0.051,551
2019-07-25T11:36:56,42.805,6.029,CST-1368DR,8539,11947,15457,0.041,551
2019-07-25T11:39:58,42.805,6.029,CST-1368DR,8539,11946,15455,0.041,551
2019-07-25T11:43:00,42.805,6.029,CST-1368DR,8539,11948,15457,0.041,551
2019-07-25T11:46:01,42.805,6.029,CST-1368DR,8539,11945,15453,0.042,551
2019-07-25T11:49:03,42.805,6.029,CST-1368DR,8539,11947,15457,0.041,551
2019-07-25T11:52:05,42.805,6.029,CST-1368DR,8539,11948,15457,0.041,551
2019-07-25T11:55:06,42.805,6.029,CST-1368DR,8539,11947,15456,0.041,551
2019-07-25T11:58:08,42.805,6.029,CST-1368DR,8539,11946,15455,0.041,550
2019-07-25T12:01:09,42.805,6.029,CST-1368DR,8539,11947,15456,0.041,551
2019-07-25T12:04:11,42.805,6.029,CST-1368DR,8539,11948,15457,0.041,551
2019-07-25T12:07:13,42.805,6.029,CST-1368DR,8539,11948,15457,0.041,551
2019-07-25T12:10:14,42.805,6.029,CST-1368DR,8539,11948,15457,0.041,551
2019-07-25T12:13:16,42.805,6.029,CST-1368DR,8539,11948,15457,0.041,550
2019-07-25T12:16:18,42.805,6.029,CST-1368DR,8539,11945,15454,0.042,551
2019-07-25T12:19:19,42.805,6.029,CST-1368DR,8538,11940,15449,0.043,551
2019-07-25T12:22:21,42.805,6.029,CST-1368DR,8538,11948,15459,0.040,551
2019-07-25T12:25:23,42.805,6.029,CST-1368DR,8538,11946,15456,0.041,551
2019-07-25T12:28:24,42.805,6.029,CST-1368DR,8539,11947,15457,0.041,551
2019-07-25T12:31:26,42.805,6.029,CST-1368DR,8538,11945,15455,0.041,551
2019-07-25T12:34:27,42.805,6.029,CST-1368DR,8538,11947,15458,0.041,551
2019-07-25T12:37:29,42.805,6.029,CST-1368DR,8538,11947,15458,0.041,551
2019-07-25T12:40:31,42.805,6.029,CST-1368DR,8538,11947,15458,0.041,551
2019-07-25T12:43:32,42.805,6.029,CST-1368DR,8538,11946,15457,0.041,551
2019-07-25T12:46:34,42.805,6.029,CST-1368DR,8538,11947,15458,0.041,551
2019-07-25T12:49:36,42.805,6.029,CST-1368DR,8538,11947,15457,0.041,550
2019-07-25T12:52:38,42.805,6.029,CST-1368DR,8538,11948,15459,0.040,550
2019-07-25T12:55:39,42.805,6.029,CST-1368DR,8538,11947,15458,0.041,551
2019-07-25T12:58:41,42.805,6.029,CST-1368DR,8538,11947,15458,0.041,551
2019-07-25T13:01:42,42.805,6.029,CST-1368DR,8538,11947,15458,0.041,550
2019-07-25T13:04:44,42.805,6.029,CST-1368DR,8538,11946,15457,0.041,551
2019-07-25T13:07:46,42.805,6.029,CST-1368DR,8538,11947,15457,0.041,551
2019-07-25T13:10:47,42.805,6.029,CST-1368DR,8538,11947,15457,0.041,551
2019-07-25T13:13:49,42.805,6.029,CST-1368DR,8538,11946,15457,0.041,551
2019-07-25T13:16:51,42.805,6.029,CST-1368DR,8538,11946,15457,0.041,551
2019-07-25T13:19:52,42.805,6.029,CST-1368DR,8538,11946,15456,0.041,551
2019-07-25T13:22:54,42.805,6.029,CST-1368DR,8538,11946,15456,0.041,551
2019-07-25T13:25:55,42.805,6.029,CST-1368DR,8538,11947,15458,0.041,551
2019-07-25T13:28:57,42.805,6.029,CST-1368DR,8538,11946,15457,0.041,551
2019-07-25T13:31:59,42.805,6.029,CST-1368DR,8538,11947,15458,0.041,551
2019-07-25T13:35:00,42.805,6.029,CST-1368DR,8538,11946,15457,0.041,550
2019-07-25T13:38:02,42.805,6.029,CST-1368DR,8538,11945,15455,0.041,551
2019-07-25T13:41:04,42.805,6.029,CST-1368DR,8538,11946,15456,0.041,551
2019-07-25T13:44:05,42.805,6.029,CST-1368DR,8538,11946,15456,0.041,551
2019-07-25T13:47:07,42.805,6.029,CST-1368DR,8537,11943,15454,0.042,551
2019-07-25T13:50:09,42.805,6.029,CST-1368DR,8538,11945,15456,0.041,551
2019-07-25T13:53:10,42.805,6.029,CST-1368DR,8538,11946,15456,0.041,551
2019-07-25T13:56:12,42.805,6.029,CST-1368DR,8538,11942,15452,0.042,551
2019-07-25T13:59:13,42.805,6.029,CST-1368DR,8538,11946,15456,0.041,550
2019-07-25T14:02:15,42.805,6.029,CST-1368DR,8538,11946,15456,0.041,551
2019-07-25T14:05:17,42.805,6.029,CST-1368DR,8538,11946,15457,0.041,551
2019-07-25T14:08:18,42.805,6.029,CST-1368DR,8537,11943,15455,0.041,551
2019-07-25T14:11:20,42.805,6.029,CST-1368DR,8538,11946,15457,0.041,551
2019-07-25T14:14:22,42.805,6.029,CST-1368DR,8537,11945,15457,0.041,551
2019-07-25T14:17:23,42.805,6.029,CST-1368DR,8538,11946,15456,0.041,551
2019-07-25T14:20:25,42.805,6.029,CST-1368DR,8538,11946,15457,0.041,551
2019-07-25T14:23:26,42.805,6.029,CST-1368DR,8538,11946,15457,0.041,551
2019-07-25T14:26:28,42.805,6.029,CST-1368DR,8538,11945,15456,0.041,551
2019-07-25T14:29:30,42.805,6.029,CST-1368DR,8537,11947,15459,0.040,551
2019-07-25T14:32:31,42.805,6.029,CST-1368DR,8537,11945,15457,0.041,551
2019-07-25T14:35:33,42.805,6.029,CST-1368DR,8537,11945,15457,0.041,551
2019-07-25T14:38:35,42.805,6.029,CST-1368DR,8537,11946,15458,0.041,551
2019-07-25T14:41:36,42.805,6.029,CST-1368DR,8537,11945,15457,0.041,550
2019-07-25T14:44:38,42.805,6.029,CST-1368DR,8537,11945,15456,0.041,551
2019-07-25T14:47:39,42.805,6.029,CST-1368DR,8537,11944,15456,0.041,551
2019-07-25T14:50:41,42.805,6.029,CST-1368DR,8537,11944,15456,0.041,551
2019-07-25T14:53:43,42.805,6.029,CST-1368DR,8537,11945,15456,0.041,551
2019-07-25T14:56:44,42.805,6.029,CST-1368DR,8537,11943,15454,0.042,551
2019-07-25T14:59:46,42.805,6.029,CST-1368DR,8537,11945,15457,0.041,551
2019-07-25T15:02:48,42.805,6.029,CST-1368DR,8537,11945,15457,0.041,551
2019-07-25T15:05:49,42.805,6.029,CST-1368DR,8537,11945,15457,0.041,551
2019-07-25T15:08:51,42.805,6.029,CST-1368DR,8537,11944,15456,0.041,551
2019-07-25T15:11:52,42.805,6.029,CST-1368DR,8537,11945,15457,0.041,551
2019-07-25T15:14:54,42.805,6.029,CST-1368DR,8537,11943,15454,0.042,551
2019-07-25T15:17:56,42.805,6.029,CST-1368DR,8537,11943,15454,0.042,551
2019-07-25T15:20:57,42.805,6.029,CST-1368DR,8537,11943,15455,0.041,551
2019-07-25T15:23:59,42.805,6.029,CST-1368DR,8537,11943,15454,0.042,551
2019-07-25T15:27:01,42.805,6.029,CST-1368DR,8537,11944,15456,0.041,551
2019-07-25T15:30:02,42.805,6.029,CST-1368DR,8537,11944,15456,0.041,551
2019-07-25T15:33:04,42.805,6.029,CST-1368DR,8537,11945,15456,0.041,551
2019-07-25T15:36:05,42.805,6.029,CST-1368DR,8537,11944,15456,0.041,551
2019-07-25T15:39:07,42.805,6.029,CST-1368DR,8537,11944,15456,0.041,551
2019-07-25T15:42:09,42.805,6.029,CST-1368DR,8537,11942,15453,0.042,551
2019-07-25T15:45:10,42.805,6.029,CST-1368DR,8537,11942,15454,0.042,551
2019-07-25T15:48:12,42.805,6.029,CST-1368DR,8537,11943,15454,0.042,550
2019-07-25T15:51:14,42.805,6.029,CST-1368DR,8537,11945,15457,0.041,551
2019-07-25T15:54:15,42.805,6.029,CST-1368DR,8537,11943,15455,0.041,551
2019-07-25T15:57:17,42.805,6.029,CST-1368DR,8537,11944,15456,0.041,551
2019-07-25T16:00:18,42.805,6.029,CST-1368DR,8537,11944,15456,0.041,551
2019-07-25T16:03:20,42.805,6.029,CST-1368DR,8537,11943,15455,0.041,551
2019-07-25T16:06:22,42.805,6.029,CST-1368DR,8537,11944,15456,0.041,551
2019-07-25T16:09:23,42.805,6.029,CST-1368DR,8537,11944,15456,0.041,551
2019-07-25T16:12:25,42.805,6.029,CST-1368DR,8537,11943,15455,0.041,551
2019-07-25T16:15:27,42.805,6.029,CST-1368DR,8537,11942,15454,0.042,550
2019-07-25T16:18:28,42.805,6.029,CST-1368DR,8536,11943,15456,0.041,551
2019-07-25T16:21:30,42.805,6.029,CST-1368DR,8536,11943,15456,0.041,551
2019-07-25T16:24:31,42.805,6.029,CST-1368DR,8536,11937,15449,0.043,551
2019-07-25T16:27:33,42.805,6.029,CST-1368DR,8536,11943,15456,0.041,551
2019-07-25T16:30:35,42.805,6.029,CST-1368DR,8536,11944,15457,0.041,551
2019-07-25T16:33:36,42.805,6.029,CST-1368DR,8536,11943,15457,0.041,551
2019-07-25T16:36:38,42.805,6.029,CST-1368DR,8536,11944,15457,0.041,551